Weather History for KHST - November, 2013

Change the Weather History Date:

Thursday, November 14, 2013

  Actual Average Record
Temperature  
Mean Temperature 76 °F -  
Max Temperature 82 °F 79 °F 90 °F (1947)
Min Temperature 70 °F 61 °F 40 °F (1975)
Cooling Degree Days 11    
Growing Degree Days 26 (Base 50)    
Moisture  
Dew Point 62 °F    
Average Humidity 66    
Maximum Humidity 70    
Minimum Humidity 53    
Precipitation  
Precipitation 0.00 in - - ()
Sea Level Pressure  
Sea Level Pressure 30.16 in    
Wind  
Wind Speed 18 mph (ENE)    
Max Wind Speed 25 mph    
Max Gust Speed 33 mph    
Visibility 10 miles    
Events      
Averages and records for this station are not official NWS values.
T = Trace of Precipitation, MM = Missing Value Source: NWS Daily Summary

Daily Weather History Graph

Daily Weather History Graph

Search for Another Location

Airport or City:

Trip Planner

Search our weather history database for the weather conditions in past years. The results will help you decide how hot, cold, wet, or windy it might be!

Date:

Astronomy

Nov. 14, 2013 Rise Set
Actual Time 6:38 AM EST 5:33 PM EST
Civil Twilight 6:14 AM EST 5:57 PM EST
Nautical Twilight 5:46 AM EST 6:25 PM EST
Astronomical Twilight 5:19 AM EST 6:52 PM EST
Moon 3:40 PM EST (11/14) 3:48 AM EST (11/14)
Length of Visible Light 11h 43m
Length of Day
10h 54m
Waxing Gibbous, 91% of the Moon is Illuminated
Nov 14
Waxing Gibbous
Nov 17
Full
Nov 25
Last Quarter
Dec 2
New
Dec 9
First Quarter

Hourly Weather History & Observations

Time (EST) Temp. Heat Index Dew Point Humidity Pressure Visibility Wind Dir Wind Speed Gust Speed Precip Events Conditions
12:58 AM 71.6 °F - 61.0 °F 69% 30.15 in 10.0 mi ENE 23.0 mph 31.1 mph N/A   Partly Cloudy
1:58 AM 71.4 °F - 60.1 °F 67% 30.15 in 10.0 mi NE 21.9 mph 29.9 mph N/A   Mostly Cloudy
2:58 AM 71.2 °F - 61.2 °F 70% 30.14 in 10.0 mi NE 25.3 mph 33.4 mph N/A   Scattered Clouds
3:58 AM 71.4 °F - 60.1 °F 67% 30.14 in 10.0 mi ENE 16.1 mph - N/A   Partly Cloudy
4:58 AM 71.6 °F - 60.6 °F 68% 30.14 in 10.0 mi ENE 18.4 mph 23.0 mph N/A   Scattered Clouds
5:58 AM 71.2 °F - 60.1 °F 68% 30.15 in 10.0 mi ENE 20.7 mph 28.8 mph N/A   Scattered Clouds
6:58 AM 70.7 °F - 58.8 °F 66% 30.18 in 10.0 mi ENE 15.0 mph 24.2 mph N/A   Clear
7:58 AM 72.0 °F - 59.4 °F 64% 30.20 in 10.0 mi NE 16.1 mph 25.3 mph N/A   Clear
8:58 AM 74.1 °F - 60.1 °F 61% 30.21 in 10.0 mi ENE 18.4 mph 25.3 mph N/A   Clear
9:58 AM 75.7 °F - 63.1 °F 65% 30.22 in 10.0 mi East 15.0 mph 25.3 mph N/A   Clear
10:58 AM 75.0 °F - 63.0 °F 66% 30.21 in 10.0 mi East 15.0 mph 25.3 mph N/A   Partly Cloudy
11:58 AM 76.6 °F - 62.4 °F 61% 30.19 in 10.0 mi ENE 17.3 mph 24.2 mph N/A   Clear
12:58 PM 76.6 °F - 62.6 °F 62% 30.17 in 10.0 mi East 17.3 mph 23.0 mph N/A   Clear
1:58 PM 82.4 °F 83.7 °F 63.7 °F 53% 30.15 in 10.0 mi ENE 19.6 mph 24.2 mph N/A   Partly Cloudy
2:58 PM 75.4 °F - 62.4 °F 64% 30.14 in 10.0 mi ENE 16.1 mph - N/A   Partly Cloudy
3:58 PM 74.7 °F - 62.4 °F 66% 30.15 in 10.0 mi ENE 12.7 mph - N/A   Scattered Clouds
4:58 PM 74.1 °F - 61.9 °F 65% 30.15 in 10.0 mi ENE 12.7 mph - N/A   Partly Cloudy
5:58 PM 72.7 °F - 61.7 °F 68% 30.15 in 10.0 mi ENE 11.5 mph - 0.00 in   Clear
6:58 PM 73.4 °F - 62.6 °F 69% 30.16 in 10.0 mi ENE 13.8 mph - N/A   Clear
7:58 PM 73.4 °F - 62.8 °F 69% 30.16 in 10.0 mi ENE 12.7 mph - N/A   Clear
8:58 PM 73.9 °F - 62.8 °F 68% 30.17 in 10.0 mi East 10.4 mph - N/A   Scattered Clouds
9:58 PM 74.1 °F - 63.1 °F 68% 30.15 in 10.0 mi East 10.4 mph - N/A   Mostly Cloudy
10:58 PM 74.3 °F - 63.0 °F 68% 30.14 in 10.0 mi East 10.4 mph - N/A   Scattered Clouds
11:58 PM 74.3 °F - 63.7 °F 69% 30.13 in 10.0 mi East 11.5 mph - N/A   Mostly Cloudy